Novato, CA

4:39 PM PST on December 05, 2019 (GMT -0800)
Gnoss

Weather History for KDVO - October, 2019

Change the Weather History Date:

Wednesday, October 23, 2019

  Actual Average (KAPC) Record (KAPC)
Temperature  
Mean Temperature 68 °F -  
Max Temperature 89 °F 75 °F 86 °F (2007)
Min Temperature 46 °F 49 °F 37 °F (1998)
Cooling Degree Days 2    
Growing Degree Days 18 (Base 50)    
Moisture  
Dew Point 38 °F    
Average Humidity 42    
Maximum Humidity 87    
Minimum Humidity 8    
Precipitation  
Precipitation 0.00 in - - ()
Sea Level Pressure  
Sea Level Pressure 29.97 in    
Wind  
Wind Speed 2 mph ()    
Max Wind Speed 12 mph    
Max Gust Speed 21 mph    
Visibility 9.8 miles    
Events      
Averages and records for this station are not official NWS values.
T = Trace of Precipitation, MM = Missing Value Source: Averaged Metar Reports

Daily Weather History Graph

Daily Weather History Graph

Search for Another Location

Airport or City:

Astronomy

Oct. 23, 2019 Rise Set
Actual Time 7:26 AM PDT 6:21 PM PDT
Civil Twilight 6:59 AM PDT 6:48 PM PDT
Nautical Twilight 6:29 AM PDT 7:19 PM PDT
Astronomical Twilight 5:58 AM PDT 7:49 PM PDT
Moon 1:58 AM PDT (10/23) 4:09 PM PDT (10/23)
Length of Visible Light 11h 48m
Length of Day
10h 55m
Waning Crescent, 25% of the Moon is Illuminated
Oct 23
Waning Crescent
Oct 27
New
Nov 4
First Quarter
Nov 12
Full
Nov 19
Last Quarter

Hourly Weather History & Observations

Time (PDT) Temp. Dew Point Humidity Pressure Visibility Wind Dir Wind Speed Gust Speed Precip Events Conditions
12:15 AM 55.4 °F 42.8 °F 63% 30.04 in 10.0 mi Calm Calm - N/A   Clear
12:35 AM 53.6 °F 44.6 °F 72% 30.04 in 10.0 mi Calm Calm - N/A   Clear
12:55 AM 55.4 °F 44.6 °F 67% 30.04 in 10.0 mi Calm Calm - N/A   Clear
1:15 AM 53.6 °F 42.8 °F 67% 30.04 in 10.0 mi Calm Calm - N/A   Clear
1:35 AM 51.8 °F 42.8 °F 71% 30.04 in 10.0 mi NNW 4.6 mph - N/A   Clear
1:55 AM 53.6 °F 44.6 °F 72% 30.04 in 10.0 mi Calm Calm - N/A   Clear
2:15 AM 55.4 °F 44.6 °F 67% 30.04 in 10.0 mi Calm Calm - N/A   Clear
2:35 AM 53.6 °F 44.6 °F 72% 30.04 in 10.0 mi Calm Calm - N/A   Clear
2:55 AM 53.6 °F 46.4 °F 77% 30.04 in 10.0 mi Calm Calm - N/A   Clear
3:15 AM 53.6 °F 46.4 °F 77% 30.03 in 10.0 mi Calm Calm - N/A   Clear
3:35 AM 53.6 °F 44.6 °F 72% 30.03 in 10.0 mi Calm Calm - N/A   Clear
3:55 AM 55.4 °F 46.4 °F 72% 30.02 in 10.0 mi Calm Calm - N/A   Clear
4:35 AM 55.4 °F 46.4 °F 72% 30.02 in 10.0 mi Calm Calm - N/A   Clear
4:55 AM 55.4 °F 48.2 °F 77% 30.02 in 10.0 mi Calm Calm - N/A   Clear
5:15 AM 55.4 °F 48.2 °F 77% 30.02 in 10.0 mi Calm Calm - N/A   Clear
5:35 AM 53.6 °F 46.4 °F 77% 30.02 in 10.0 mi Calm Calm - N/A   Clear
5:55 AM 51.8 °F 44.6 °F 76% 30.02 in 10.0 mi Calm Calm - N/A   Clear
6:15 AM 51.8 °F 46.4 °F 82% 30.03 in 10.0 mi Calm Calm - N/A   Clear
6:35 AM 50.0 °F 44.6 °F 82% 30.02 in 10.0 mi Calm Calm - N/A   Clear
6:55 AM 46.4 °F 42.8 °F 87% 30.02 in 10.0 mi Calm Calm - N/A   Clear
7:15 AM 48.2 °F 44.6 °F 87% 30.02 in 10.0 mi Calm Calm - N/A   Clear
7:35 AM 50.0 °F 44.6 °F 82% 30.02 in 10.0 mi Calm Calm - N/A   Clear
7:55 AM 50.0 °F 46.4 °F 87% 30.02 in 10.0 mi Calm Calm - N/A   Clear
8:15 AM 53.6 °F 46.4 °F 77% 30.02 in 10.0 mi Calm Calm - N/A   Clear
8:35 AM 55.4 °F 48.2 °F 77% 30.02 in 7.0 mi Calm Calm - N/A   Clear
8:55 AM 59.0 °F 48.2 °F 67% 30.03 in 9.0 mi NNW 4.6 mph - N/A   Clear
9:15 AM 62.6 °F 50.0 °F 63% 30.03 in 10.0 mi North 3.5 mph - N/A   Clear
10:15 AM 69.8 °F 51.8 °F 53% 30.03 in 10.0 mi Calm Calm - N/A   Clear
10:35 AM 73.4 °F 51.8 °F 47% 30.02 in 10.0 mi NW 3.5 mph - N/A   Clear
10:55 AM 75.2 °F 51.8 °F 44% 30.01 in 10.0 mi Calm Calm - N/A   Clear
11:15 AM 77.0 °F 50.0 °F 39% 30.01 in 10.0 mi Calm Calm - N/A   Clear
11:35 AM 78.8 °F 50.0 °F 36% 30.00 in 10.0 mi Calm Calm - N/A   Clear
11:55 AM 82.4 °F 44.6 °F 26% 30.00 in 10.0 mi Variable 5.8 mph - N/A   Clear
12:15 PM 86.0 °F 42.8 °F 22% 29.98 in 10.0 mi NNE 6.9 mph - N/A   Clear
12:35 PM 82.4 °F 48.2 °F 30% 29.98 in 9.0 mi ESE 8.1 mph - N/A   Clear
12:55 PM 84.2 °F 48.2 °F 29% 29.97 in 9.0 mi SE 10.4 mph - N/A   Clear
1:15 PM 84.2 °F 44.6 °F 25% 29.97 in 9.0 mi Calm Calm - N/A   Clear
1:35 PM 84.2 °F 42.8 °F 23% 29.96 in 9.0 mi Variable 4.6 mph - N/A   Clear
1:55 PM 84.2 °F 42.8 °F 23% 29.95 in 9.0 mi Calm Calm - N/A   Clear
2:15 PM 86.0 °F 41.0 °F 20% 29.94 in 10.0 mi East 5.8 mph - N/A   Clear
2:35 PM 86.0 °F 41.0 °F 20% 29.93 in 9.0 mi Variable 3.5 mph - N/A   Clear
2:55 PM 87.8 °F 39.2 °F 18% 29.92 in 9.0 mi NW 4.6 mph - N/A   Clear
3:15 PM 87.8 °F 37.4 °F 17% 29.92 in 10.0 mi NNE 11.5 mph - N/A   Clear
3:35 PM 87.8 °F 37.4 °F 17% 29.91 in 10.0 mi ENE 9.2 mph - N/A   Clear
3:55 PM 87.8 °F 33.8 °F 15% 29.91 in 10.0 mi NNE 11.5 mph - N/A   Clear
4:15 PM 89.6 °F 33.8 °F 14% 29.91 in 10.0 mi NNE 11.5 mph - N/A   Clear
4:35 PM 87.8 °F 33.8 °F 15% 29.91 in 10.0 mi NNE 11.5 mph - N/A   Clear
4:55 PM 87.8 °F 33.8 °F 15% 29.90 in 10.0 mi NNE 9.2 mph - N/A   Clear
5:35 PM 84.2 °F 35.6 °F 18% 29.90 in 10.0 mi North 4.6 mph - N/A   Clear
5:55 PM 82.4 °F 35.6 °F 19% 29.90 in 10.0 mi WNW 4.6 mph - N/A   Clear
6:15 PM 78.8 °F 33.8 °F 20% 29.90 in 10.0 mi Calm Calm - N/A   Clear
6:35 PM 77.0 °F 37.4 °F 24% 29.90 in 10.0 mi South 3.5 mph - N/A   Clear
6:55 PM 75.2 °F 37.4 °F 25% 29.90 in 10.0 mi South 3.5 mph - N/A   Clear
7:15 PM 71.6 °F 39.2 °F 31% 29.91 in 10.0 mi Calm Calm - N/A   Clear
7:35 PM 69.8 °F 30.2 °F 23% 29.91 in 10.0 mi NNW 8.1 mph - N/A   Clear
7:55 PM 73.4 °F 26.6 °F 18% 29.91 in 10.0 mi NNW 8.1 mph 16.1 mph N/A   Clear
8:15 PM 73.4 °F 24.8 °F 16% 29.91 in 10.0 mi North 8.1 mph - N/A   Clear
8:35 PM 73.4 °F 23.0 °F 15% 29.91 in 10.0 mi NNW 8.1 mph - N/A   Clear
8:55 PM 75.2 °F 21.2 °F 13% 29.91 in 10.0 mi NNW 6.9 mph - N/A   Clear
9:15 PM 77.0 °F 19.4 °F 12% 29.91 in 10.0 mi NNW 8.1 mph - N/A   Clear
9:35 PM 77.0 °F 17.6 °F 11% 29.91 in 10.0 mi NNW 6.9 mph 13.8 mph N/A   Clear
9:55 PM 78.8 °F 17.6 °F 10% 29.91 in 10.0 mi North 8.1 mph 13.8 mph N/A   Clear
10:15 PM 78.8 °F 15.8 °F 9% 29.92 in 10.0 mi WNW 4.6 mph - N/A   Clear
10:35 PM 78.8 °F 14.0 °F 9% 29.92 in 10.0 mi West 11.5 mph - N/A   Clear
10:55 PM 80.6 °F 14.0 °F 8% 29.93 in 10.0 mi WNW 10.4 mph - N/A   Clear
11:15 PM 80.6 °F 14.0 °F 8% 29.93 in 10.0 mi NW 11.5 mph - N/A   Clear
11:35 PM 80.6 °F 12.2 °F 8% 29.93 in 10.0 mi NNW 8.1 mph 20.7 mph N/A   Clear
11:55 PM 80.6 °F 12.2 °F 8% 29.93 in 10.0 mi NNW 10.4 mph - N/A   Clear